Zurück zum Katalog

STARLINK-37323

AktivKommunikationVLEO
NORAD 69516·PAYLOAD·🇺🇸 United States

Gestartet Jun 12, 2026 von Cape Canaveral Space Force Station

Loading…

Nächste Überflüge (nächste 24 Stunden)

TLE

AktuellSource: CelesTrak SupGP

Epoche: Sep 14, 2026, 22:30 UTC

1 69516C 26133J   26257.93798611  .00039276  00000+0  11609-2 0  2570
2 69516  53.1561 255.7866 0001198  98.8671  94.6689 15.34358384    14

Verfolge STARLINK-37323 in Echtzeit mit AllMySat

Download on the App Store